Regional Weather Roundup
Issued by NWS Northern Indiana

Home | Current Version | Previous Version | Text Only | Print | Product List | Glossary Off
Versions: 1 2 3 4 5 6 7 8 9 10 11 12 13 14 15 16 17 18 19 20 21 22 23 24 25 26 27 28 29 30 31 32 33 34 35 36 37 38 39 40 41 42 43 44 45 46 47 48 49 50

466
ASUS43 KIWX 251500
RWRIWX

KIWX WEATHER ROUNDUP
NATIONAL WEATHER SERVICE NORTHERN INDIANA
1100 AM EDT SUN JUN 25 2017

NOTE: "FAIR" INDICATES FEW OR NO CLOUDS BELOW 12,000 FEET WITH NO
SIGNIFICANT WEATHER AND/OR OBSTRUCTIONS TO VISIBILITY.

* THESE STATIONS ARE NOT UNDER NWS QUALITY CONTROL. THEY ALSO MAY NOT
  REPORT WEATHER SUCH AS PRECIPITATION OR FOG.

INZ001>027-251600-
NORTHERN INDIANA

CITY           SKY/WX    TMP DP  RH WIND       PRES   REMARKS
GARY*          MOSUNNY   68  45  42 W16G28    30.12S
MICHIGAN CITY* SUNNY     64  48  55 NW9G16    30.12R
KNOX*          SUNNY     64  36  34 W17       30.12S
SOUTH BEND     MOSUNNY   65  46  50 W16G26    30.10S
GOSHEN         MOSUNNY   65  45  48 W14G23    30.10R
MONTICELLO*    SUNNY     66  46  47 W12       30.13S
FORT WAYNE     MOSUNNY   67  48  50 W14G21    30.11R
PERU/GRISSOM   SUNNY     66  48  52 W12       30.13R

$$
INZ028>050-251600-
CENTRAL INDIANA

CITY           SKY/WX    TMP DP  RH WIND       PRES   REMARKS
LAFAYETTE      SUNNY     66  50  56 W10       30.14S
KOKOMO*        SUNNY     66  48  52 W15       30.15R
MUNCIE*        SUNNY     68  48  48 NW12      30.14R
INDIANAPOLIS   SUNNY     69  49  48 W12       30.16S

$$
MIZ043>046-050>051-056>058-064>065-071>073-077>080-251600-
SOUTHWEST LOWER MICHIGAN

CITY           SKY/WX    TMP DP  RH WIND       PRES   REMARKS
BATTLE CREEK   MOSUNNY   65  49  56 W14G23    30.06F
BENTON HARBOR  SUNNY     65  51  60 W21       30.09R
COLDWATER*     PTSUNNY   65  46  50 NW13G20   30.08R
HILLSDALE*     PTSUNNY   63  45  51 W14G24    30.06S
HOLLAND        MOSUNNY   64  53  67 W16G28    30.06R
GRAND RAPIDS   PTSUNNY   63  51  65 SW20G25   30.02S
KALAMAZOO      PTSUNNY   65  45  48 W17G23    30.07S
STURGIS*       PTSUNNY   64  47  54 NW8G20    30.08R
THREE RIVERS*  PTSUNNY   64  47  54 W12G23    30.08S

$$
OHZ001>008-015>018-024>025-251600-
NORTHWEST OHIO

CITY           SKY/WX    TMP DP  RH WIND       PRES   REMARKS
DEFIANCE       SUNNY     65  46  50 W14G22    30.08R
FINDLAY        SUNNY     69  46  43 W24       30.07R
TOLEDO EXPRESS SUNNY     66  46  48 W20G25    30.05R
TOLEDO METCALF SUNNY     69  48  47 W21G26    30.05R
LIMA           SUNNY     67  50  54 W18G24    30.10R

$$
AND FOR LAKE MICHIGAN COASTAL AND OPEN LAKE BUOY OBSERVATIONS

STATION/POSITION TEMP    WIND        PRES    VSBY  WAVE
                 AIR SEA DIR/SP/G                  HT/PER
                 (F)     (DEG/KT/KT) (MB)    (MI)  (FT/S)
CALUMET HARBOR    65     250/  6/ 12 1018.9F
MICHIGAN CITY     61     250/ 18/ 21   N/A
BURNS HARBOR      63     270/ 13/ 14 1020.0S
SOUTH LAKE BUOY   58 61  300/ 17/ 19 1017.6          4/ 5
4 MI NW BRIDGMAN  62 69  280/ 14/ 17 1019.2R         4/ 5
MICHIGAN CITY     62 66  270/ 14/ 17   N/A           4/ 4

$$
&&




USA.gov is the U.S. government's official web portal to all federal, state and local government web resources and services.